Change the Weather History Date:

Wednesday, December 11, 2013

  Actual Average Record
Temperature  
Mean Temperature 7 °F -  
Max Temperature 19 °F 35 °F 48 °F (1998)
Min Temperature -5 °F 22 °F -5 °F (2013)
Degree Days  
Heating Degree Days 58    
Moisture  
Dew Point 2 °F    
Average Humidity 70    
Maximum Humidity 86    
Minimum Humidity 49    
Precipitation  
Precipitation 0.00 in - - ()
Sea Level Pressure  
Sea Level Pressure 30.43 in    
Wind  
Wind Speed 5 mph (NW)    
Max Wind Speed 17 mph    
Max Gust Speed 22 mph    
Visibility 8 miles    
Events      
Averages and records for this station are not official NWS values.
T = Trace of Precipitation, MM = Missing Value Source: NWS Daily Summary

Daily Weather History Graph

Daily Weather History Graph

Search for Another Location

Airport or City:

Trip Planner

Search our weather history database for the weather conditions in past years. The results will help you decide how hot, cold, wet, or windy it might be!

Date:

Astronomy

Dec. 11, 2013 Rise Set
Actual Time 7:16 AM CST 4:28 PM CST
Civil Twilight 6:44 AM CST 4:59 PM CST
Nautical Twilight 6:09 AM CST 5:34 PM CST
Astronomical Twilight 5:35 AM CST 6:08 PM CST
Moon 1:05 PM CST (12/11) 1:33 AM CST (12/11)
Length of Visible Light 10h 15m
Length of Day
9h 12m
Waxing Gibbous, 72% of the Moon is Illuminated
Dec 11
Waxing Gibbous
Dec 17
Full
Dec 25
Last Quarter
Jan 1
New
Jan 7
First Quarter

Hourly Weather History & Observations

Time (CST) Temp. Windchill Dew Point Humidity Pressure Visibility Wind Dir Wind Speed Gust Speed Precip Events Conditions
12:15 AM 17.6 °F - 10.4 °F 73% 30.28 in 5.0 mi Calm Calm - N/A   Clear
12:35 AM 15.8 °F - 10.4 °F 79% 30.27 in 2.5 mi Calm Calm - N/A   Clear
12:55 AM 15.8 °F - 12.2 °F 86% 30.26 in 3.0 mi Calm Calm - N/A   Clear
1:15 AM 15.8 °F - 10.4 °F 79% 30.26 in 3.0 mi Calm Calm - N/A   Mostly Cloudy
1:35 AM 15.8 °F - 12.2 °F 86% 30.26 in 2.0 mi Calm Calm - N/A   Overcast
1:55 AM 15.8 °F 10.2 °F 12.2 °F 86% 30.25 in 4.0 mi South 3.5 mph - N/A   Mostly Cloudy
2:15 AM 15.8 °F - 10.4 °F 79% 30.25 in 3.0 mi Calm Calm - N/A   Overcast
2:35 AM 15.8 °F - 12.2 °F 86% 30.26 in 2.5 mi Calm Calm - N/A   Overcast
2:55 AM 17.6 °F - 12.2 °F 79% 30.26 in 3.0 mi Calm Calm - N/A   Mostly Cloudy
3:15 AM 17.6 °F - 12.2 °F 79% 30.26 in 3.0 mi Calm Calm - N/A   Clear
3:35 AM 17.6 °F - 12.2 °F 79% 30.26 in 2.0 mi Calm Calm - N/A   Clear
3:55 AM 17.6 °F - 12.2 °F 79% 30.27 in 1.8 mi Calm Calm - N/A   Mostly Cloudy
4:15 AM 17.6 °F 12.3 °F 12.2 °F 79% 30.28 in 1.8 mi West 3.5 mph - N/A   Overcast
4:35 AM 17.6 °F 12.3 °F 12.2 °F 79% 30.28 in 1.2 mi WNW 3.5 mph - N/A   Overcast
4:55 AM 17.6 °F 12.3 °F 12.2 °F 79% 30.29 in 1.8 mi WNW 3.5 mph - N/A   Overcast
5:15 AM 17.6 °F 12.3 °F 12.2 °F 79% 30.30 in 1.5 mi NW 3.5 mph - N/A   Overcast
5:35 AM 17.6 °F 12.3 °F 12.2 °F 79% 30.30 in 2.5 mi WNW 3.5 mph - N/A   Mostly Cloudy
5:55 AM 17.6 °F 12.3 °F 12.2 °F 79% 30.31 in 4.0 mi WNW 3.5 mph - N/A   Mostly Cloudy
6:15 AM 17.6 °F 10.7 °F 12.2 °F 79% 30.32 in 3.0 mi WNW 4.6 mph - N/A   Overcast
6:35 AM 17.6 °F 10.7 °F 12.2 °F 79% 30.33 in 8.0 mi NW 4.6 mph - N/A   Partly Cloudy
6:55 AM 17.6 °F 10.7 °F 12.2 °F 79% 30.33 in 10.0 mi NW 4.6 mph - N/A   Mostly Cloudy
7:15 AM 15.8 °F 8.6 °F 10.4 °F 79% 30.34 in 10.0 mi NW 4.6 mph - N/A   Scattered Clouds
7:35 AM 14.0 °F 5.1 °F 8.6 °F 79% 30.35 in 8.0 mi NW 5.8 mph - N/A   Partly Cloudy
7:55 AM 15.8 °F 8.6 °F 10.4 °F 79% 30.36 in 7.0 mi NW 4.6 mph - N/A   Mostly Cloudy
8:15 AM 15.8 °F 7.2 °F 10.4 °F 79% 30.36 in 10.0 mi NW 5.8 mph - N/A   Overcast
8:35 AM 12.2 °F 1.7 °F 8.6 °F 85% 30.38 in 9.0 mi WNW 6.9 mph - N/A   Scattered Clouds
8:55 AM 15.8 °F 5.1 °F 8.6 °F 73% 30.39 in 10.0 mi NW 8.1 mph - N/A   Clear
9:15 AM 17.6 °F 6.4 °F 10.4 °F 73% 30.40 in 10.0 mi NW 9.2 mph - N/A   Clear
9:35 AM 19.4 °F 10.4 °F 10.4 °F 68% 30.41 in 10.0 mi NW 6.9 mph - N/A   Partly Cloudy
9:55 AM 19.4 °F 6.6 °F 10.4 °F 68% 30.42 in 5.0 mi NNW 12.7 mph - N/A   Clear
10:15 AM 19.4 °F 6.0 °F 10.4 °F 68% 30.42 in 5.0 mi NNW 13.8 mph - N/A   Partly Cloudy
10:35 AM 19.4 °F 6.0 °F 8.6 °F 63% 30.43 in 10.0 mi NNW 13.8 mph 21.9 mph N/A   Mostly Cloudy
10:55 AM 17.6 °F 2.7 °F 6.8 °F 63% 30.43 in 10.0 mi NNW 16.1 mph 21.9 mph N/A   Mostly Cloudy
11:15 AM 17.6 °F 2.2 °F 6.8 °F 63% 30.44 in 0.5 mi NNW 17.3 mph 21.9 mph N/A   Unknown
11:35 AM 15.8 °F 1.4 °F 5.0 °F 62% 30.45 in 0.5 mi North 13.8 mph - N/A   Unknown
11:55 AM 15.8 °F 2.1 °F 5.0 °F 62% 30.45 in 10.0 mi North 12.7 mph - N/A   Clear
12:15 PM 15.8 °F 1.4 °F 1.4 °F 53% 30.45 in 10.0 mi NNW 13.8 mph - N/A   Clear
12:35 PM 15.8 °F 0.3 °F 1.4 °F 53% 30.46 in 7.0 mi North 16.1 mph - N/A   Clear
12:55 PM 15.8 °F 1.4 °F 1.4 °F 53% 30.46 in 10.0 mi NNW 13.8 mph - N/A   Clear
1:15 PM 15.8 °F 2.7 °F -0.4 °F 49% 30.46 in 10.0 mi NNW 11.5 mph - N/A   Clear
1:35 PM 14.0 °F -1.4 °F 1.4 °F 57% 30.47 in 10.0 mi WNW 15.0 mph - N/A   Clear
1:55 PM 12.2 °F -3.1 °F 1.4 °F 62% 30.47 in 10.0 mi WNW 13.8 mph - N/A   Clear
2:15 PM 12.2 °F -3.7 °F -0.4 °F 57% 30.48 in 10.0 mi WNW 15.0 mph - N/A   Clear
2:35 PM 12.2 °F -3.7 °F -2.2 °F 53% 30.49 in 10.0 mi WNW 15.0 mph - N/A   Clear
2:55 PM 10.4 °F -4.8 °F -2.2 °F 57% 30.49 in 10.0 mi NW 12.7 mph - N/A   Clear
3:15 PM 10.4 °F -4.8 °F -4.0 °F 52% 30.50 in 10.0 mi WNW 12.7 mph - N/A   Clear
3:35 PM 8.6 °F -7.0 °F -5.8 °F 52% 30.51 in 10.0 mi WNW 12.7 mph - N/A   Clear
3:55 PM 8.6 °F -7.7 °F -5.8 °F 52% 30.52 in 10.0 mi WNW 13.8 mph - N/A   Clear
4:15 PM 6.8 °F -9.3 °F -7.6 °F 52% 30.52 in 10.0 mi WNW 12.7 mph - N/A   Clear
4:35 PM 3.2 °F -13.1 °F -7.6 °F 61% 30.53 in 10.0 mi WNW 11.5 mph - N/A   Clear
4:55 PM 3.2 °F -13.9 °F -7.6 °F 61% 30.54 in 10.0 mi WNW 12.7 mph - N/A   Clear
5:15 PM 1.4 °F -16.1 °F -7.6 °F 66% 30.55 in 10.0 mi WNW 12.7 mph - N/A   Clear
5:35 PM 1.4 °F -15.3 °F -7.6 °F 66% 30.55 in 10.0 mi WNW 11.5 mph - N/A   Clear
5:55 PM 1.4 °F -16.1 °F -9.4 °F 61% 30.56 in 10.0 mi WNW 12.7 mph - N/A   Clear
6:15 PM -0.4 °F -19.2 °F -9.4 °F 66% 30.56 in 10.0 mi WNW 13.8 mph - N/A   Clear
6:35 PM -0.4 °F -13.4 °F -11.2 °F 60% 30.56 in 10.0 mi NW 6.9 mph - N/A   Clear
6:55 PM -2.2 °F -15.6 °F -11.2 °F 66% 30.56 in 10.0 mi West 6.9 mph - N/A   Clear
7:15 PM -4.0 °F -17.8 °F -13.0 °F 65% 30.57 in 10.0 mi West 6.9 mph - N/A   Clear
7:35 PM -5.8 °F -18.4 °F -14.8 °F 65% 30.57 in 10.0 mi WNW 5.8 mph - N/A   Clear
7:55 PM -4.0 °F -17.8 °F - N/A% 30.56 in 10.0 mi WNW 6.9 mph - N/A   Clear
8:15 PM -5.8 °F -18.4 °F -14.8 °F 65% 30.56 in 10.0 mi WNW 5.8 mph - N/A   Clear
8:35 PM -5.8 °F -21.2 °F -13.0 °F 71% 30.56 in 10.0 mi WNW 8.1 mph - N/A   Clear
8:55 PM -5.8 °F -21.2 °F -14.8 °F 65% 30.57 in 10.0 mi West 8.1 mph - N/A   Clear
9:15 PM -5.8 °F -19.9 °F -13.0 °F 71% 30.57 in 10.0 mi West 6.9 mph - N/A   Clear
9:35 PM -4.0 °F -16.3 °F -11.2 °F 71% 30.57 in 10.0 mi West 5.8 mph - N/A   Clear
9:55 PM -5.8 °F -18.4 °F -11.2 °F 77% 30.57 in 10.0 mi WNW 5.8 mph - N/A   Clear
10:15 PM -5.8 °F -14.5 °F -11.2 °F 77% 30.57 in 10.0 mi WNW 3.5 mph - N/A   Clear
10:35 PM -5.8 °F -18.4 °F -11.2 °F 77% 30.57 in 10.0 mi West 5.8 mph - N/A   Clear
10:55 PM -4.0 °F -14.6 °F -11.2 °F 71% 30.57 in 10.0 mi West 4.6 mph - N/A   Clear
11:15 PM -4.0 °F - -11.2 °F 71% 30.56 in 10.0 mi Calm Calm - N/A   Partly Cloudy
11:35 PM -4.0 °F - -11.2 °F 71% 30.55 in 10.0 mi Calm Calm - N/A   Partly Cloudy
11:55 PM -4.0 °F - -11.2 °F 71% 30.54 in 10.0 mi Calm Calm - N/A   Clear